Location: Izdebnik
(49.8699°N, 19.7619°E)
Time: 05:18:51
(UTC+01:00)

ISS - Pass Details

Date: 31 January 2019
Orbit: 403 x 411 km, 51.6° (Epoch: 21 February)

Event Time Altitude Azimuth Distance (km) Brightness Sun altitude
Rises 19:46:20 0° 287° (WNW) 2,342 1.2 -31.1°
Reaches altitude 10° 19:48:25 10° 286° (WNW) 1,480 -0.1 -31.4°
Enters shadow 19:48:37 11° 286° (WNW) 1,398 -0.3 -31.4°
